Temperature
14 14 14 14 14 14 14 14 14 14 14 15 15 14 14 14 14 14 15 15 15 15 14 14 14 14 14 14 14 14 14 14 14 14 14 14 14 14 14 14 14 14 14
14 14 14 14 14 14 14 14 14 14 14 14 14 14 14 14 14 14 14 14 14 14 14 14 14 14 14 14 14 14 14 14 14 14 14 14 14 14 14 14 14 14 14
14 14 14 14 14 14 14 14 14 14 14 14 14 14 14 14 14 14 14 14 14 14 14 14 14 14 14 14 14 14 14 14 14 14 14 14 14 14 14 14 14 14 14
14 13 13 14 14 14 14 14 14 14 14 14 14 14 14 14 14 14 14 14 14 14 14 14 14 14 14 14 14 14 14 14 14 14 14 14 13 13 13 13 13 13 13
13 13 13 14 14 14 14 14 14 14 14 14 14 13 13 13 13 14 14 14 14 14 14 14 14 14 14 14 14 14 14 14 13 13 13 13 13 13 13 13 13 13 13
13 13 13 13 13 13 13 13 13 13 13 13 13 13 13 13 13 13 14 14 14 14 14 14 14 13 13 13 13 13 13 13 13 13 13 13 13 12 13 13 13 13 13
13 13 13 13 13 13 13 13 13 13 13 13 13 13 13 13 13 13 13 13 14 13 13 13 13 13 13 13 13 13 13 13 13 13 13 13 12 12 12 12 12 12 12
13 13 13 13 13 13 13 13 13 13 13 13 13 13 13 13 13 13 13 13 13 13 13 13 13 13 13 13 12 13 13 13 13 12 12 12 12 12 12 12 12 12 12
13 13 13 13 13 13 13 13 13 13 13 13 13 13 12 13 13 13 13 13 13 13 13 13 13 13 13 13 12 12 12 12 12 12 12 12 12 12 12 12 12 12 12
12 12 12 12 12 12 12 12 12 12 12 12 12 12 12 12 12 13 13 13 13 13 13 12 12 13 13 12 12 12 12 12 12 12 12 12 11 11 11 11 11 11 11
12 12 12 12 12 12 12 12 12 12 12 12 12 12 12 12 12 12 12 12 12 12 12 12 12 12 12 12 12 12 12 11 11 11 11 11 11 11 11 11 11 11 11
11 11 12 12 12 12 12 12 12 12 12 12 12 12 12 12 12 12 12 12 12 12 12 12 12 12 12 12 12 11 11 11 11 11 11 11 11 11 11 11 11 11 11
11 11 11 11 11 11 11 11 11 11 11 11 11 11 11 11 12 11 11 11 11 11 11 11 11 11 11 11 11 11 11 11 11 11 10 10 10 10 10 10 10 10 10
11 11 11 11 11 11 11 11 11 11 11 11 11 11 11 11 11 11 11 11 11 11 11 11 11 11 11 11 11 10 10 10 10 10 10 10 10 10 10 10 10 10 10
11 11 11 11 11 11 11 11 11 11 11 11 11 11 11 11 11 11 11 11 11 10 10 10 10 11 10 10 10 10 10 10 10 10 10 10 10 10 10 9 9 9 9
11 11 10 10 10 10 10 10 10 10 11 10 10 10 10 10 10 10 10 10 10 10 10 10 10 10 10 10 10 9 9 9 9 9 9 9 9 9 9 9 9 9 9
11 10 10 10 10 10 10 10 10 10 10 10 10 10 10 10 10 10 10 10 10 10 9 9 9 9 9 9 9 9 9 9 9 9 9 9 9 9 9 9 9 9 8
10 10 10 10 10 10 9 9 9 9 9 9 9 9 9 9 9 9 9 9 9 9 9 9 9 9 9 9 9 9 9 9 8 8 8 8 8 8 9 9 8 8 8
10 10 10 9 9 9 9 9 9 9 9 9 9 9 9 9 9 8 8 8 8 8 8 8 8 8 8 8 8 8 8 8 8 8 8 8 8 8 8 8 8 8 8
9 9 9 9 9 9 8 8 8 8 8 8 8 8 8 8 8 8 8 8 8 8 8 8 8 8 7 7 7 8 8 8 8 8 8 8 8 8 8 8 8 7 7
9 9 9 9 8 8 8 8 8 8 8 8 8 8 8 8 7 7 7 7 7 7 7 7 7 7 7 7 7 7 7 7 7 7 7 7 7 7 7 7 7 7 7
8 8 8 8 8 8 8 8 8 8 8 8 8 7 7 7 7 7 7 7 7 7 7 7 7 7 6 6 6 6 6 7 7 7 7 7 7 7 7 7 7 7 7
8 8 8 8 8 8 8 7 7 7 7 7 7 7 7 7 6 6 6 6 6 6 6 6 6 6 6 6 6 6 6 6 6 6 7 7 6 6 6 6 6 6 6
8 8 8 8 7 7 7 7 7 7 7 7 7 7 7 6 6 6 6 6 6 6 6 6 6 5 5 5 5 5 5 5 5 5 6 6 6 6 6 6 6 6 6
8 7 7 7 7 7 7 7 7 7 7 7 6 6 6 6 6 6 5 5 5 5 5 5 5 5 5 5 5 5 5 5 4 4 5 5 5 5 5 5 5 5 5
7 7 7 7 7 6 6 6 6 6 6 6 6 6 6 6 5 5 5 5 5 5 5 5 5 4 4 4 4 4 4 4 4 4 4 4 5 5 5 5 5 5 5
Wind_Speed
1 1 4 6 7 8 9 9 9 9 9 9 10 10 10 10 10 10 10 10 10 10 10 10 10 11 11 12 12 12 12 12 12 13 13 12 13 13 13 13 12 11 13
3 3 6 7 8 8 9 9 9 9 9 9 9 10 10 9 10 10 10 10 10 10 10 10 10 11 11 11 12 12 11 12 12 12 12 11 11 12 12 12 11 10 12
4 5 7 7 8 8 9 9 9 9 9 9 9 9 9 9 9 9 9 10 10 10 9 10 10 10 11 11 11 12 12 12 12 11 11 10 10 11 11 11 10 11 11
6 6 6 8 8 8 9 9 9 9 9 9 9 9 9 9 9 9 9 9 9 9 9 9 10 10 10 10 10 11 11 11 11 11 10 9 9 10 10 10 10 10 10
6 6 7 8 8 8 8 9 9 9 9 9 9 9 9 9 8 8 9 9 9 9 9 9 9 10 10 10 10 10 10 11 11 10 10 9 8 9 10 10 9 9 9
5 6 7 8 8 8 8 9 8 8 8 8 9 9 9 8 8 9 9 9 9 9 9 9 9 9 9 9 9 9 10 10 10 10 9 8 7 7 8 8 8 8 8
4 6 7 8 8 8 8 8 8 8 8 8 8 8 8 8 8 8 8 8 8 8 9 8 8 8 8 8 9 9 9 8 9 8 8 7 6 7 7 8 8 7 7
5 5 6 7 8 8 8 8 8 8 8 8 8 8 7 7 7 7 7 8 8 8 8 8 7 7 7 7 8 8 8 7 7 7 6 6 6 6 6 7 7 6 7
5 6 5 6 7 7 7 8 8 8 8 8 7 7 7 7 7 6 7 7 7 7 7 8 7 7 7 7 8 8 8 8 8 6 5 5 5 5 5 5 5 5 6
4 4 5 6 7 6 7 7 8 8 8 8 8 8 7 7 7 7 7 7 7 7 7 7 7 7 7 7 7 8 7 7 7 6 5 4 4 4 4 4 4 5 5
3 3 3 5 6 6 6 6 7 7 8 9 8 8 7 6 6 6 7 7 7 6 6 6 6 7 7 7 7 7 7 6 6 5 4 4 4 4 4 4 5 5 5
3 2 2 3 4 5 5 5 6 6 7 7 7 7 6 6 6 6 6 6 6 6 6 6 6 6 7 7 6 7 6 6 6 5 4 4 4 4 4 4 5 5 4
4 3 2 2 3 4 3 4 4 5 5 5 5 5 5 5 5 5 5 5 6 6 6 6 6 5 5 6 5 5 5 5 5 5 5 4 4 5 4 4 4 3 3
4 3 2 2 3 3 4 3 4 3 3 3 3 4 5 4 4 4 4 4 4 5 5 5 5 5 5 5 5 5 5 5 4 4 6 6 5 5 4 4 4 4 3
4 3 2 2 2 3 3 2 3 2 2 2 2 3 3 3 2 3 3 3 3 4 4 4 4 4 4 4 3 4 4 4 4 4 5 6 6 6 5 4 4 5 5
5 4 3 3 3 3 2 2 2 2 2 2 2 2 2 2 2 2 2 2 3 2 2 2 2 2 3 3 3 3 3 3 3 4 5 5 5 5 5 5 5 4 4
5 4 4 4 3 3 2 2 2 2 2 2 1 1 1 2 2 2 1 1 2 2 2 3 3 3 2 3 3 2 2 2 3 3 4 4 4 5 5 5 5 4 4
4 4 4 4 3 3 3 2 2 2 2 2 1 1 1 1 1 2 1 1 1 2 2 2 2 2 2 2 2 2 2 2 2 2 3 3 4 4 4 5 5 5 4
4 4 4 4 4 4 3 3 2 2 2 1 1 1 1 1 1 2 1 1 1 2 2 1 1 1 1 2 2 2 2 2 2 1 1 2 2 3 3 4 5 5 5
3 3 3 3 3 3 3 2 2 1 1 1 1 1 1 1 1 2 1 1 1 1 1 1 0 1 0 1 2 2 2 2 1 1 1 1 1 2 2 3 3 4 5
2 2 2 3 3 3 2 2 2 2 1 1 1 1 2 1 1 2 1 1 2 1 1 1 0 1 1 1 1 2 2 2 1 1 1 1 1 1 1 2 2 3 4
3 3 3 3 4 3 3 3 2 2 2 2 1 1 2 2 2 2 2 2 2 1 0 1 1 0 1 1 0 1 2 3 2 1 1 1 1 2 1 1 1 2 2
3 4 3 4 4 4 3 2 2 1 0 1 1 2 2 3 3 2 3 3 2 2 2 2 2 2 2 1 0 1 1 2 2 2 1 1 1 1 1 1 1 1 1
4 3 3 3 3 3 3 4 4 4 4 4 3 2 2 3 3 3 3 3 3 3 3 2 2 2 3 2 1 1 1 2 1 2 2 2 2 2 2 2 2 2 2
3 2 2 2 3 3 4 5 5 4 4 2 2 2 2 2 2 3 3 3 3 3 3 3 2 2 3 3 3 2 1 1 2 2 3 3 3 2 2 2 2 2 3
2 1 2 2 3 3 4 4 5 5 4 3 3 3 2 2 2 2 3 3 3 3 3 3 4 3 3 3 3 2 2 2 2 2 3 3 3 3 3 2 3 3 3
Wind_Direction
220 209 130 116 110 105 99 96 92 93 92 90 90 88 84 79 76 73 70 68 68 69 69 70 71 72 71 69 69 67 66 65 67 66 65 67 70 72 74 72 69 72 76
155 139 129 120 114 109 102 98 94 93 93 91 88 88 85 81 77 74 71 68 67 67 68 69 71 71 71 69 68 67 69 66 64 63 61 60 66 71 73 72 70 74 76
113 124 128 125 120 114 108 100 93 91 92 90 87 84 81 80 79 76 73 68 64 63 67 71 71 69 69 69 67 66 66 65 64 62 58 53 60 69 70 72 72 73 75
111 117 123 126 125 117 110 102 96 92 89 88 86 82 80 78 76 75 73 70 65 62 64 71 69 69 69 68 68 69 68 66 62 60 55 52 58 68 69 70 73 75 75
94 106 119 121 121 116 109 105 101 95 90 90 87 82 79 77 74 74 71 69 66 64 65 68 71 72 71 69 70 71 71 67 59 55 52 50 55 65 68 68 70 74 75
85 98 114 114 114 110 104 101 101 96 93 91 90 83 79 76 76 74 71 68 66 66 67 68 72 73 73 71 72 74 73 68 59 54 47 45 53 63 70 69 70 76 76
94 99 113 112 111 110 106 101 98 93 90 87 87 83 79 77 75 75 73 71 72 70 68 68 70 74 75 73 73 74 73 68 64 56 46 43 53 62 69 70 69 74 75
98 99 111 115 111 108 106 102 97 91 86 82 81 81 77 76 76 77 76 72 73 72 67 65 69 71 75 76 74 71 69 69 65 55 49 46 55 61 65 67 68 68 68
86 87 86 100 105 105 101 95 94 91 86 80 76 75 73 71 71 70 73 73 72 72 69 65 68 70 69 74 74 70 66 66 63 53 48 45 52 59 64 66 68 67 63
77 76 77 83 89 94 102 95 88 83 80 77 73 70 69 66 65 62 66 71 69 67 66 65 65 65 64 69 72 69 63 60 56 51 43 44 49 56 65 72 70 70 63
92 68 74 82 82 87 98 96 89 82 75 75 70 67 66 64 62 59 62 64 62 63 60 61 63 61 59 61 66 64 61 54 51 43 37 41 44 52 66 70 69 62 56
158 129 88 100 97 92 96 93 86 82 77 74 72 68 69 70 67 65 62 60 57 58 57 54 53 54 57 56 56 59 58 53 48 35 30 34 42 53 62 65 65 58 57
178 169 136 121 121 110 100 98 90 86 78 73 69 70 72 69 66 64 60 54 53 53 55 50 48 51 63 62 58 56 56 56 45 32 25 33 41 41 44 51 53 58 53
173 180 164 133 126 119 116 113 103 93 85 75 67 71 78 73 64 61 61 53 53 55 56 53 54 48 58 61 59 56 55 56 47 34 26 31 35 35 34 39 42 47 49
181 185 183 156 132 124 118 121 110 110 105 92 78 68 81 90 78 64 62 61 57 59 62 55 52 49 49 53 55 56 55 52 46 40 29 27 29 35 37 36 33 29 35
189 189 182 174 147 126 124 134 130 128 117 105 91 65 76 96 99 85 75 62 55 61 71 77 59 56 50 52 47 47 47 48 46 44 34 23 22 29 33 30 21 15 18
192 186 184 181 156 142 141 147 137 133 125 121 119 104 90 95 102 100 94 74 47 53 75 80 65 63 54 40 21 29 40 46 47 49 44 29 18 19 26 24 14 3 1
187 187 190 186 177 174 165 152 142 133 130 133 133 129 120 111 113 109 103 72 32 70 85 96 74 43 29 16 0 359 13 28 30 34 47 41 30 21 15 16 6 360 354
193 192 191 188 185 186 172 155 142 133 132 140 134 133 150 143 134 127 128 111 95 87 89 97 54 37 16 0 342 339 345 340 340 8 49 49 37 23 13 0 354 353 354
192 189 194 193 189 178 163 147 126 114 104 118 148 170 166 151 139 131 128 115 111 108 76 84 81 29 4 333 340 335 320 310 326 330 306 26 19 6 9 360 353 346 354
174 177 190 188 192 175 174 179 183 205 215 224 194 187 177 155 155 141 151 143 137 165 205 173 124 54 354 347 353 333 320 300 290 294 304 346 352 343 5 356 358 1 353
199 203 198 199 196 197 196 190 182 180 206 216 215 195 202 189 183 178 174 187 175 175 184 192 168 174 329 6 108 357 323 322 326 312 301 272 304 345 359 339 355 357 356
209 217 214 210 205 208 192 160 132 108 73 220 238 235 223 208 199 194 196 190 185 187 205 213 197 188 219 266 268 169 185 250 309 309 290 293 297 314 313 313 323 326 330
223 222 217 211 210 213 192 182 184 200 221 229 226 227 230 211 208 208 205 201 195 192 203 217 214 210 193 217 246 258 225 204 217 297 306 308 306 296 283 294 300 306 317
225 221 223 207 212 215 205 199 201 219 227 226 217 219 234 231 218 213 208 201 203 200 203 207 215 216 208 209 209 218 229 255 222 217 274 300 312 289 274 270 266 280 298
218 217 220 214 226 223 213 209 210 220 226 223 231 227 235 244 248 229 209 203 208 209 210 212 213 213 216 215 215 210 202 204 215 208 239 275 288 290 290 276 255 259 276
Height
1528 1529 1531 1531 1532 1533 1533 1534 1534 1534 1534 1535 1535 1535 1535 1535 1535 1535 1535 1534 1534 1534 1534 1533 1533 1533 1532 1532 1532 1532 1532 1532 1532 1532 1533 1533 1534 1534 1535 1535 1535 1535 1536
1528 1529 1531 1532 1533 1533 1534 1535 1535 1535 1535 1535 1535 1536 1536 1536 1536 1536 1536 1535 1535 1535 1534 1534 1534 1533 1533 1533 1533 1533 1533 1533 1533 1533 1534 1534 1535 1535 1535 1536 1536 1536 1537
1528 1530 1531 1532 1533 1534 1534 1535 1535 1536 1536 1536 1536 1536 1536 1536 1536 1536 1536 1536 1536 1535 1535 1535 1535 1534 1534 1534 1534 1534 1534 1534 1534 1534 1534 1535 1535 1536 1536 1536 1537 1537 1537
1528 1529 1531 1532 1533 1534 1535 1535 1536 1536 1536 1536 1537 1537 1537 1537 1537 1537 1537 1537 1537 1536 1536 1535 1535 1535 1534 1534 1534 1534 1534 1534 1534 1535 1535 1535 1536 1536 1537 1537 1537 1538 1538
1528 1530 1531 1532 1533 1534 1535 1535 1536 1536 1536 1537 1537 1537 1537 1537 1537 1537 1537 1537 1537 1536 1536 1536 1535 1535 1535 1535 1534 1535 1535 1535 1535 1535 1535 1536 1536 1537 1537 1537 1538 1538 1538
1528 1530 1531 1532 1533 1534 1535 1535 1536 1536 1537 1537 1537 1537 1537 1537 1537 1537 1537 1537 1537 1537 1537 1536 1536 1535 1535 1535 1535 1535 1535 1535 1536 1535 1536 1536 1537 1537 1537 1537 1538 1538 1538
1528 1530 1531 1532 1533 1534 1534 1535 1535 1536 1536 1537 1537 1537 1537 1537 1537 1537 1537 1537 1537 1537 1537 1536 1536 1536 1536 1535 1535 1535 1535 1535 1536 1536 1536 1536 1537 1537 1537 1537 1537 1538 1538
1528 1529 1530 1532 1533 1533 1534 1535 1535 1536 1536 1536 1537 1537 1537 1537 1537 1537 1537 1537 1537 1537 1537 1536 1536 1536 1536 1536 1535 1535 1535 1535 1536 1536 1536 1536 1537 1537 1537 1537 1537 1537 1537
1528 1529 1530 1531 1532 1533 1534 1534 1535 1535 1536 1536 1536 1537 1537 1537 1537 1537 1537 1537 1537 1537 1537 1536 1536 1536 1536 1535 1535 1535 1535 1535 1535 1536 1536 1536 1537 1537 1537 1537 1537 1537 1537
1528 1529 1530 1531 1531 1532 1533 1534 1534 1535 1535 1535 1536 1536 1536 1536 1536 1536 1537 1536 1536 1536 1536 1536 1536 1536 1536 1535 1535 1535 1535 1535 1535 1535 1536 1536 1536 1536 1536 1536 1536 1536 1536
1527 1528 1529 1530 1531 1532 1532 1533 1534 1534 1534 1535 1535 1535 1535 1536 1536 1536 1536 1536 1536 1535 1535 1535 1535 1535 1535 1535 1535 1535 1535 1535 1535 1535 1535 1535 1536 1536 1535 1535 1535 1535 1535
1525 1526 1528 1529 1530 1531 1531 1532 1533 1533 1533 1534 1534 1534 1535 1535 1535 1535 1535 1535 1535 1535 1535 1534 1534 1534 1534 1534 1534 1534 1534 1534 1534 1534 1534 1535 1535 1535 1535 1534 1534 1534 1533
1523 1525 1526 1527 1529 1530 1530 1531 1531 1532 1532 1533 1533 1533 1533 1534 1534 1534 1534 1534 1534 1534 1534 1533 1533 1533 1533 1533 1533 1533 1533 1533 1534 1534 1534 1534 1534 1534 1533 1533 1533 1533 1532
1522 1523 1525 1526 1527 1528 1529 1529 1530 1530 1531 1531 1532 1532 1532 1532 1533 1533 1533 1533 1533 1533 1532 1532 1532 1532 1532 1532 1532 1532 1532 1532 1532 1532 1532 1533 1533 1532 1532 1532 1532 1532 1531
1520 1522 1523 1524 1525 1526 1527 1528 1528 1529 1529 1530 1530 1531 1531 1531 1531 1531 1531 1532 1531 1531 1531 1531 1531 1530 1530 1530 1531 1531 1531 1531 1531 1531 1531 1531 1531 1531 1531 1531 1530 1530 1530
1519 1520 1522 1523 1524 1525 1526 1526 1527 1527 1528 1528 1529 1529 1529 1530 1530 1530 1530 1530 1530 1530 1530 1529 1529 1529 1529 1529 1529 1529 1529 1529 1529 1529 1529 1529 1529 1529 1529 1529 1529 1529 1528
1517 1519 1519 1521 1522 1523 1524 1525 1525 1525 1526 1526 1527 1527 1527 1528 1528 1528 1528 1528 1528 1528 1528 1528 1527 1527 1527 1527 1527 1527 1527 1527 1527 1527 1527 1528 1528 1527 1527 1527 1527 1527 1527
1515 1516 1517 1518 1519 1520 1522 1522 1523 1524 1524 1524 1525 1525 1525 1526 1526 1526 1526 1526 1526 1526 1526 1525 1525 1525 1525 1525 1525 1525 1525 1525 1525 1526 1526 1526 1526 1526 1525 1525 1525 1525 1525
1513 1514 1515 1516 1517 1518 1519 1520 1521 1521 1522 1522 1522 1523 1523 1523 1524 1524 1524 1524 1524 1524 1524 1523 1523 1523 1523 1523 1523 1523 1523 1523 1523 1523 1523 1523 1523 1523 1523 1523 1523 1523 1523
1510 1511 1512 1513 1514 1515 1516 1517 1518 1519 1519 1519 1520 1520 1521 1521 1521 1521 1521 1521 1521 1521 1521 1521 1521 1521 1521 1521 1521 1520 1520 1520 1520 1520 1521 1521 1521 1521 1521 1520 1520 1520 1520
1507 1508 1509 1510 1511 1512 1513 1513 1514 1515 1516 1516 1517 1517 1517 1518 1518 1518 1518 1518 1518 1518 1518 1518 1518 1518 1518 1519 1519 1518 1517 1517 1517 1517 1518 1518 1518 1518 1518 1518 1518 1518 1517
1505 1506 1507 1507 1508 1509 1510 1510 1511 1512 1513 1513 1514 1514 1514 1515 1515 1515 1515 1515 1515 1515 1515 1515 1515 1515 1516 1516 1516 1516 1515 1516 1514 1515 1515 1515 1515 1515 1515 1515 1515 1515 1514
1502 1503 1504 1505 1505 1506 1507 1507 1508 1509 1509 1510 1510 1510 1511 1511 1511 1511 1511 1512 1512 1512 1512 1512 1512 1512 1513 1513 1514 1515 1514 1512 1512 1512 1512 1512 1512 1512 1512 1512 1512 1512 1511
1499 1500 1501 1502 1502 1503 1504 1504 1504 1504 1505 1505 1506 1506 1507 1507 1507 1508 1508 1508 1508 1508 1508 1508 1508 1509 1509 1510 1511 1511 1512 1511 1511 1509 1509 1509 1510 1510 1510 1509 1509 1509 1509
1496 1497 1498 1498 1499 1500 1500 1501 1501 1501 1501 1502 1502 1503 1503 1503 1504 1504 1504 1504 1504 1504 1504 1504 1505 1505 1505 1506 1506 1507 1508 1508 1508 1507 1506 1506 1506 1507 1507 1507 1506 1506 1506
1493 1494 1494 1495 1495 1496 1497 1497 1497 1497 1497 1498 1498 1498 1499 1499 1500 1500 1500 1500 1500 1500 1500 1500 1501 1501 1501 1502 1502 1503 1503 1504 1504 1504 1503 1503 1503 1503 1503 1503 1503 1503 1502